Data No.,UTC Date,UTC Time,Latitude,Longitude,Course(deg),Temp(degC),Sal(psu)
284,2015/10/3,7:24:00,05-35.2800S,106-00.0600E,37,29.166,34.3416
285,2015/10/3,7:25:00,05-35.1300S,106-00.1700E,37,29.167,34.3413
286,2015/10/3,7:26:00,05-34.9800S,106-00.2900E,37,29.161,34.3425
287,2015/10/3,7:27:00,05-34.8300S,106-00.4000E,37,29.163,34.3417
288,2015/10/3,7:28:00,05-34.6800S,106-00.5200E,37,29.19,34.343
289,2015/10/3,7:29:00,05-34.5300S,106-00.6300E,37,29.171,34.3437
290,2015/10/3,7:30:00,05-34.3800S,106-00.7400E,37,29.17,34.3432
291,2015/10/3,7:31:00,05-34.2300S,106-00.8600E,37,29.179,34.3423
292,2015/10/3,7:32:00,05-34.0700S,106-00.9800E,34,29.202,34.3434
293,2015/10/3,7:33:00,05-33.9100S,106-01.0800E,33,29.192,34.3438
294,2015/10/3,7:34:00,05-33.7600S,106-01.1900E,36,29.151,34.344
295,2015/10/3,7:35:00,05-33.6000S,106-01.3000E,35,29.17,34.3432
296,2015/10/3,7:36:00,05-33.4500S,106-01.4100E,34,29.218,34.3429
297,2015/10/3,7:37:00,05-33.2900S,106-01.5100E,34,29.172,34.3455
298,2015/10/3,7:38:00,05-33.1300S,106-01.6200E,35,29.152,34.3431
299,2015/10/3,7:39:00,05-32.9800S,106-01.7300E,36,29.159,34.3442
300,2015/10/3,7:40:00,05-32.8300S,106-01.8500E,35,29.183,34.3447
301,2015/10/3,7:41:00,05-32.6700S,106-01.9500E,34,29.206,34.3443
302,2015/10/3,7:42:00,05-32.5200S,106-02.0600E,34,29.195,34.3468
303,2015/10/3,7:43:00,05-32.3600S,106-02.1700E,33,29.206,34.3473
304,2015/10/3,7:44:00,05-32.2000S,106-02.2700E,33,29.208,34.3479
305,2015/10/3,7:45:00,05-32.0400S,106-02.3700E,29,29.245,34.347
306,2015/10/3,7:46:00,05-31.8800S,106-02.4500E,27,29.231,34.3485
307,2015/10/3,7:47:00,05-31.7100S,106-02.5400E,27,29.189,34.348
308,2015/10/3,7:48:00,05-31.5500S,106-02.6300E,28,29.173,34.3458
309,2015/10/3,7:49:00,05-31.3800S,106-02.7200E,27,29.168,34.3458
310,2015/10/3,7:50:00,05-31.2200S,106-02.8000E,27,29.169,34.3462
311,2015/10/3,7:51:00,05-31.0500S,106-02.8900E,27,29.165,34.345
312,2015/10/3,7:52:00,05-30.8800S,106-02.9800E,27,29.159,34.3492
313,2015/10/3,7:53:00,05-30.7100S,106-03.0700E,28,29.168,34.3497
314,2015/10/3,7:54:00,05-30.5300S,106-03.1600E,29,29.157,34.3477
315,2015/10/3,7:55:00,05-30.3700S,106-03.2500E,28,29.172,34.3469
316,2015/10/3,7:56:00,05-30.2000S,106-03.3400E,26,29.193,34.3449
317,2015/10/3,7:57:00,05-30.0400S,106-03.4200E,27,29.165,34.3474
318,2015/10/3,7:58:00,05-29.8700S,106-03.5100E,28,29.165,34.3473
319,2015/10/3,7:59:00,05-29.7100S,106-03.6000E,26,29.202,34.3469
320,2015/10/3,8:00:00,05-29.5400S,106-03.6900E,30,29.187,34.3488
321,2015/10/3,8:01:00,05-29.3800S,106-03.7900E,31,29.178,34.3478
322,2015/10/3,8:02:00,05-29.2100S,106-03.8800E,28,29.223,34.3475
323,2015/10/3,8:03:00,05-29.0500S,106-03.9700E,29,29.203,34.3494
324,2015/10/3,8:04:00,05-28.8900S,106-04.0700E,32,29.207,34.3511
325,2015/10/3,8:05:00,05-28.7300S,106-04.1700E,30,29.224,34.3493
326,2015/10/3,8:06:00,05-28.5700S,106-04.2600E,29,29.229,34.3496
327,2015/10/3,8:07:00,05-28.4000S,106-04.3500E,30,29.222,34.3509
328,2015/10/3,8:08:00,05-28.2400S,106-04.4400E,30,29.208,34.3522
329,2015/10/3,8:09:00,05-28.0800S,106-04.5400E,29,29.222,34.3511
330,2015/10/3,8:10:00,05-27.9100S,106-04.6400E,30,29.203,34.3501
331,2015/10/3,8:11:00,05-27.7500S,106-04.7300E,30,29.182,34.3498
332,2015/10/3,8:12:00,05-27.5900S,106-04.8300E,31,29.168,34.3501
333,2015/10/3,8:13:00,05-27.4300S,106-04.9200E,30,29.175,34.3478
334,2015/10/3,8:14:00,05-27.2700S,106-05.0200E,30,29.193,34.3484
335,2015/10/3,8:15:00,05-27.1100S,106-05.1100E,29,29.2,34.3478
336,2015/10/3,8:16:00,05-26.9300S,106-05.2200E,30,29.203,34.349
337,2015/10/3,8:17:00,05-26.7700S,106-05.3100E,30,29.19,34.3503
338,2015/10/3,8:18:00,05-26.6100S,106-05.4100E,30,29.195,34.3504
339,2015/10/3,8:19:00,05-26.4500S,106-05.5000E,30,29.181,34.3495
340,2015/10/3,8:20:00,05-26.2800S,106-05.6000E,30,29.167,34.3488
341,2015/10/3,8:21:00,05-26.1200S,106-05.7000E,30,29.156,34.3498
342,2015/10/3,8:22:00,05-25.9600S,106-05.7900E,30,29.166,34.3486
343,2015/10/3,8:23:00,05-25.8000S,106-05.8900E,30,29.176,34.348
344,2015/10/3,8:24:00,05-25.6300S,106-05.9800E,30,29.175,34.3481
345,2015/10/3,8:25:00,05-25.4700S,106-06.0800E,30,29.171,34.3486
346,2015/10/3,8:26:00,05-25.3100S,106-06.1700E,31,29.179,34.3494
347,2015/10/3,8:27:00,05-25.1500S,106-06.2800E,33,29.161,34.3504
348,2015/10/3,8:28:00,05-25.0000S,106-06.3800E,33,29.189,34.3487
349,2015/10/3,8:29:00,05-24.8400S,106-06.4800E,31,29.228,34.3494
350,2015/10/3,8:30:00,05-24.6800S,106-06.5800E,32,29.211,34.3531
351,2015/10/3,8:31:00,05-24.5300S,106-06.6900E,34,29.193,34.3529
352,2015/10/3,8:32:00,05-24.3700S,106-06.8000E,35,29.174,34.3526
353,2015/10/3,8:33:00,05-24.2200S,106-06.9000E,35,29.169,34.3523
354,2015/10/3,8:34:00,05-24.0700S,106-07.0100E,35,29.183,34.3531
355,2015/10/3,8:35:00,05-23.9100S,106-07.1200E,34,29.171,34.3516
356,2015/10/3,8:36:00,05-23.7600S,106-07.2300E,35,29.162,34.3515
357,2015/10/3,8:37:00,05-23.6100S,106-07.3300E,35,29.16,34.3515
358,2015/10/3,8:38:00,05-23.4500S,106-07.4400E,34,29.186,34.3529
359,2015/10/3,8:39:00,05-23.2900S,106-07.5600E,34,29.195,34.3554
360,2015/10/3,8:40:00,05-23.1300S,106-07.6600E,34,29.214,34.3529
361,2015/10/3,8:41:00,05-22.9800S,106-07.7700E,35,29.206,34.3582
362,2015/10/3,8:42:00,05-22.8300S,106-07.8800E,35,29.195,34.3547
363,2015/10/3,8:43:00,05-22.6800S,106-07.9900E,35,29.185,34.3534
364,2015/10/3,8:44:00,05-22.5200S,106-08.0900E,34,29.182,34.354
365,2015/10/3,8:45:00,05-22.3700S,106-08.2000E,36,29.206,34.354
366,2015/10/3,8:46:00,05-22.2200S,106-08.3100E,37,29.217,34.3521
367,2015/10/3,8:47:00,05-22.0700S,106-08.4300E,36,29.22,34.3558
368,2015/10/3,8:48:00,05-21.9200S,106-08.5400E,36,29.211,34.3546
369,2015/10/3,8:49:00,05-21.7700S,106-08.6500E,36,29.197,34.3544
370,2015/10/3,8:50:00,05-21.6200S,106-08.7600E,36,29.189,34.3538
371,2015/10/3,8:51:00,05-21.4700S,106-08.8700E,36,29.189,34.3569
372,2015/10/3,8:52:00,05-21.3200S,106-08.9800E,36,29.175,34.3538
373,2015/10/3,8:53:00,05-21.1700S,106-09.0900E,35,29.173,34.3538
374,2015/10/3,8:54:00,05-21.0200S,106-09.2100E,40,29.19,34.3548
375,2015/10/3,8:55:00,05-20.9000S,106-09.3500E,51,29.213,34.3538
376,2015/10/3,8:56:00,05-20.7800S,106-09.4900E,50,29.193,34.3567
377,2015/10/3,8:57:00,05-20.6500S,106-09.6200E,40,29.196,34.3574
378,2015/10/3,8:58:00,05-20.5000S,106-09.7300E,37,29.181,34.3555
379,2015/10/3,8:59:00,05-20.3700S,106-09.8400E,42,29.171,34.3578
380,2015/10/3,9:00:00,05-20.2200S,106-09.9800E,43,29.167,34.3559
381,2015/10/3,9:01:00,05-20.0900S,106-10.1000E,40,29.177,34.3552
382,2015/10/3,9:02:00,05-19.9500S,106-10.2200E,42,29.174,34.3563
383,2015/10/3,9:03:00,05-19.8200S,106-10.3500E,45,29.16,34.356
384,2015/10/3,9:04:00,05-19.6900S,106-10.4800E,43,29.147,34.3559
385,2015/10/3,9:05:00,05-19.5500S,106-10.6000E,42,29.143,34.3547
386,2015/10/3,9:06:00,05-19.4200S,106-10.7300E,43,29.13,34.355
387,2015/10/3,9:07:00,05-19.2900S,106-10.8500E,43,29.137,34.3561
388,2015/10/3,9:08:00,05-19.1600S,106-10.9800E,43,29.131,34.3543
389,2015/10/3,9:09:00,05-19.0300S,106-11.1100E,43,29.126,34.3536
390,2015/10/3,9:10:00,05-18.9000S,106-11.2300E,44,29.128,34.3567
391,2015/10/3,9:11:00,05-18.7700S,106-11.3600E,44,29.111,34.3547
392,2015/10/3,9:12:00,05-18.6400S,106-11.4800E,43,29.143,34.3547
393,2015/10/3,9:13:00,05-18.5100S,106-11.6000E,42,29.159,34.3552
394,2015/10/3,9:14:00,05-18.3800S,106-11.7200E,43,29.158,34.3533
395,2015/10/3,9:15:00,05-18.2500S,106-11.8600E,50,29.147,34.3532
396,2015/10/3,9:16:00,05-18.1400S,106-12.0000E,50,29.137,34.3545
397,2015/10/3,9:17:00,05-18.0300S,106-12.1300E,49,29.12,34.3536
398,2015/10/3,9:18:00,05-17.9100S,106-12.2700E,50,29.11,34.3525
399,2015/10/3,9:19:00,05-17.8100S,106-12.4100E,57,29.129,34.3503
400,2015/10/3,9:20:00,05-17.7100S,106-12.5700E,57,29.116,34.3504
401,2015/10/3,9:21:00,05-17.6200S,106-12.7100E,55,29.111,34.3494
402,2015/10/3,9:22:00,05-17.5100S,106-12.8700E,56,29.101,34.3493
403,2015/10/3,9:23:00,05-17.4200S,106-13.0200E,60,29.09,34.3479
404,2015/10/3,9:24:00,05-17.3300S,106-13.1800E,60,29.081,34.3482
405,2015/10/3,9:25:00,05-17.2400S,106-13.3300E,58,29.082,34.3465
406,2015/10/3,9:26:00,05-17.1500S,106-13.4800E,60,29.077,34.3449
407,2015/10/3,9:27:00,05-17.0700S,106-13.6500E,65,29.087,34.343
408,2015/10/3,9:28:00,05-16.9900S,106-13.8100E,63,29.092,34.3428
409,2015/10/3,9:29:00,05-16.9100S,106-13.9700E,61,29.087,34.3398
410,2015/10/3,9:30:00,05-16.8300S,106-14.1300E,64,29.089,34.3387
411,2015/10/3,9:31:00,05-16.7500S,106-14.2900E,66,29.102,34.3373
412,2015/10/3,9:32:00,05-16.7100S,106-14.4700E,80,29.109,34.3368
413,2015/10/3,9:33:00,05-16.6900S,106-14.6400E,86,29.084,34.3342
414,2015/10/3,9:34:00,05-16.6900S,106-14.8300E,89,29.072,34.3332
415,2015/10/3,9:35:00,05-16.7000S,106-15.0100E,94,29.083,34.3393
416,2015/10/3,9:36:00,05-16.7100S,106-15.1900E,91,29.072,34.3331
417,2015/10/3,9:37:00,05-16.7000S,106-15.3700E,85,29.069,34.3295
418,2015/10/3,9:38:00,05-16.6800S,106-15.5500E,85,29.052,34.3269
419,2015/10/3,9:39:00,05-16.6800S,106-15.7300E,90,29.04,34.3261
420,2015/10/3,9:40:00,05-16.6800S,106-15.9100E,88,29.043,34.3251
421,2015/10/3,9:41:00,05-16.6700S,106-16.1000E,85,29.052,34.3232
422,2015/10/3,9:42:00,05-16.6500S,106-16.2800E,84,29.045,34.3214
423,2015/10/3,9:43:00,05-16.6600S,106-16.4700E,94,29.052,34.3201
424,2015/10/3,9:44:00,05-16.6900S,106-16.6500E,104,29.042,34.3197
425,2015/10/3,9:45:00,05-16.7500S,106-16.8400E,106,29.026,34.3187
426,2015/10/3,9:46:00,05-16.7800S,106-17.0100E,97,29.027,34.3183
427,2015/10/3,9:47:00,05-16.7900S,106-17.1800E,92,29.022,34.3193
428,2015/10/3,9:48:00,05-16.8000S,106-17.3700E,93,29.023,34.317
429,2015/10/3,9:49:00,05-16.8300S,106-17.5500E,98,29.021,34.3145
430,2015/10/3,9:50:00,05-16.8600S,106-17.7300E,98,29.019,34.313
431,2015/10/3,9:51:00,05-16.8700S,106-17.9100E,93,29.023,34.3112
432,2015/10/3,9:52:00,05-16.8700S,106-18.0900E,90,29.029,34.3102
433,2015/10/3,9:53:00,05-16.8800S,106-18.2700E,95,29.02,34.3089
434,2015/10/3,9:54:00,05-16.9000S,106-18.4500E,95,29.016,34.3086
435,2015/10/3,9:55:00,05-16.9200S,106-18.6400E,92,29.017,34.3073
436,2015/10/3,9:56:00,05-16.9200S,106-18.8200E,90,29.022,34.3063
437,2015/10/3,9:57:00,05-16.9200S,106-19.0000E,91,29.018,34.3049
438,2015/10/3,9:58:00,05-16.9400S,106-19.1800E,95,29.011,34.3042
439,2015/10/3,9:59:00,05-16.9600S,106-19.3700E,96,29.001,34.3033
440,2015/10/3,10:00:00,05-16.9700S,106-19.5600E,93,29.001,34.3025
441,2015/10/3,10:01:00,05-16.9800S,106-19.7400E,90,29,34.3021
442,2015/10/3,10:02:00,05-16.9800S,106-19.9300E,90,28.997,34.3014
443,2015/10/3,10:03:00,05-16.9900S,106-20.1100E,94,28.994,34.2998
444,2015/10/3,10:04:00,05-17.0100S,106-20.3100E,96,28.992,34.2992
445,2015/10/3,10:05:00,05-17.0300S,106-20.5000E,94,28.988,34.2998
446,2015/10/3,10:06:00,05-17.0400S,106-20.6800E,91,28.978,34.2983
447,2015/10/3,10:07:00,05-17.0400S,106-20.8700E,90,28.987,34.2974
448,2015/10/3,10:08:00,05-17.0500S,106-21.0600E,93,28.982,34.2971
449,2015/10/3,10:09:00,05-17.0600S,106-21.2400E,94,28.975,34.2959
450,2015/10/3,10:10:00,05-17.0700S,106-21.4300E,93,28.975,34.2954
451,2015/10/3,10:11:00,05-17.0800S,106-21.6100E,92,28.978,34.2952
452,2015/10/3,10:12:00,05-17.0900S,106-21.8000E,92,28.978,34.2949
453,2015/10/3,10:13:00,05-17.1000S,106-21.9900E,93,28.985,34.2957
454,2015/10/3,10:14:00,05-17.1100S,106-22.1800E,93,28.986,34.2938
455,2015/10/3,10:15:00,05-17.1200S,106-22.3600E,92,28.974,34.2936
456,2015/10/3,10:16:00,05-17.1300S,106-22.5500E,92,28.959,34.2924
457,2015/10/3,10:17:00,05-17.1400S,106-22.7400E,92,28.959,34.2925
458,2015/10/3,10:18:00,05-17.1500S,106-22.9300E,92,28.952,34.2917
459,2015/10/3,10:19:00,05-17.1600S,106-23.1100E,93,28.958,34.2914
460,2015/10/3,10:20:00,05-17.1700S,106-23.3000E,92,28.949,34.2916
461,2015/10/3,10:21:00,05-17.1700S,106-23.4900E,92,28.944,34.2932
462,2015/10/3,10:22:00,05-17.1800S,106-23.6800E,92,28.95,34.2901
463,2015/10/3,10:23:00,05-17.1900S,106-23.8600E,92,28.954,34.2892
464,2015/10/3,10:24:00,05-17.2000S,106-24.0500E,92,28.966,34.2892
465,2015/10/3,10:25:00,05-17.2100S,106-24.2300E,92,28.98,34.2896
466,2015/10/3,10:26:00,05-17.2100S,106-24.4400E,92,28.974,34.2895
467,2015/10/3,10:27:00,05-17.2200S,106-24.6200E,92,28.965,34.2893
468,2015/10/3,10:28:00,05-17.2300S,106-24.8100E,92,28.966,34.2908
469,2015/10/3,10:29:00,05-17.2400S,106-25.0000E,92,28.974,34.2889
470,2015/10/3,10:30:00,05-17.2500S,106-25.1800E,93,28.975,34.2898
471,2015/10/3,10:31:00,05-17.2500S,106-25.3700E,90,28.967,34.2891
472,2015/10/3,10:32:00,05-17.2500S,106-25.5500E,86,28.957,34.2889
473,2015/10/3,10:33:00,05-17.2400S,106-25.7400E,89,28.954,34.2896
474,2015/10/3,10:34:00,05-17.2500S,106-25.9200E,91,28.952,34.2886
475,2015/10/3,10:35:00,05-17.2500S,106-26.1100E,89,28.954,34.2885
476,2015/10/3,10:36:00,05-17.2400S,106-26.2900E,85,28.948,34.2888
477,2015/10/3,10:37:00,05-17.2200S,106-26.4700E,85,28.945,34.2891
478,2015/10/3,10:38:00,05-17.2100S,106-26.6500E,88,28.946,34.2898
479,2015/10/3,10:39:00,05-17.2100S,106-26.8400E,88,28.945,34.2898
480,2015/10/3,10:40:00,05-17.2000S,106-27.0200E,85,28.943,34.2899
481,2015/10/3,10:41:00,05-17.1800S,106-27.2000E,84,28.939,34.2894
482,2015/10/3,10:42:00,05-17.1600S,106-27.3900E,85,28.94,34.29
483,2015/10/3,10:43:00,05-17.1600S,106-27.5700E,93,28.938,34.2895
484,2015/10/3,10:44:00,05-17.1800S,106-27.7500E,95,28.94,34.2907
485,2015/10/3,10:45:00,05-17.1800S,106-27.9400E,89,28.938,34.2917
486,2015/10/3,10:46:00,05-17.1800S,106-28.1200E,87,28.939,34.2911
487,2015/10/3,10:47:00,05-17.1800S,106-28.3100E,93,28.937,34.2925
488,2015/10/3,10:48:00,05-17.2000S,106-28.4900E,95,28.939,34.2919
489,2015/10/3,10:49:00,05-17.2000S,106-28.6800E,90,28.942,34.2939
490,2015/10/3,10:50:00,05-17.1900S,106-28.8600E,86,28.94,34.2929
491,2015/10/3,10:51:00,05-17.1900S,106-29.0400E,90,28.936,34.295
492,2015/10/3,10:52:00,05-17.2100S,106-29.2200E,96,28.933,34.296
493,2015/10/3,10:53:00,05-17.2200S,106-29.4000E,92,28.93,34.2971
494,2015/10/3,10:54:00,05-17.2100S,106-29.5700E,85,28.93,34.2966
495,2015/10/3,10:55:00,05-17.2000S,106-29.7600E,89,28.934,34.297
496,2015/10/3,10:56:00,05-17.2200S,106-29.9400E,96,28.93,34.2979
497,2015/10/3,10:57:00,05-17.2300S,106-30.1200E,93,28.927,34.2999
498,2015/10/3,10:58:00,05-17.2300S,106-30.3000E,85,28.927,34.2999
499,2015/10/3,10:59:00,05-17.2000S,106-30.4700E,81,28.928,34.3016
500,2015/10/3,11:00:00,05-17.1900S,106-30.6500E,89,28.925,34.3027
501,2015/10/3,11:01:00,05-17.2000S,106-30.8300E,92,28.93,34.306
502,2015/10/3,11:02:00,05-17.2000S,106-31.0100E,88,28.924,34.3027
503,2015/10/3,11:03:00,05-17.1900S,106-31.1900E,86,28.926,34.3044
504,2015/10/3,11:04:00,05-17.1800S,106-31.3700E,88,28.926,34.304
505,2015/10/3,11:05:00,05-17.1800S,106-31.5500E,91,28.925,34.3068
506,2015/10/3,11:06:00,05-17.1900S,106-31.7300E,92,28.922,34.3068
507,2015/10/3,11:07:00,05-17.1900S,106-31.9100E,90,28.92,34.3049
508,2015/10/3,11:08:00,05-17.1800S,106-32.1100E,86,28.937,34.3092
509,2015/10/3,11:09:00,05-17.1800S,106-32.2900E,89,28.938,34.3089
510,2015/10/3,11:10:00,05-17.1800S,106-32.4700E,92,28.93,34.3094
511,2015/10/3,11:11:00,05-17.1800S,106-32.6500E,88,28.928,34.3102
512,2015/10/3,11:12:00,05-17.1700S,106-32.8300E,84,28.925,34.3114
513,2015/10/3,11:13:00,05-17.1500S,106-33.0200E,85,28.922,34.3115
514,2015/10/3,11:14:00,05-17.1500S,106-33.2000E,91,28.915,34.3119
515,2015/10/3,11:15:00,05-17.1600S,106-33.3800E,92,28.91,34.3145
516,2015/10/3,11:16:00,05-17.1600S,106-33.5600E,87,28.908,34.3147
517,2015/10/3,11:17:00,05-17.1400S,106-33.7400E,83,28.906,34.3163
518,2015/10/3,11:18:00,05-17.1300S,106-33.9300E,89,28.903,34.3168
519,2015/10/3,11:19:00,05-17.1400S,106-34.1100E,94,28.902,34.3172
520,2015/10/3,11:20:00,05-17.1400S,106-34.2800E,88,28.904,34.3181
521,2015/10/3,11:21:00,05-17.1200S,106-34.4700E,82,28.906,34.3181
522,2015/10/3,11:22:00,05-17.1100S,106-34.6400E,87,28.907,34.3187
523,2015/10/3,11:23:00,05-17.1200S,106-34.8200E,94,28.904,34.3216
524,2015/10/3,11:24:00,05-17.1300S,106-35.0100E,90,28.901,34.322
525,2015/10/3,11:25:00,05-17.1100S,106-35.1800E,81,28.905,34.3217
526,2015/10/3,11:26:00,05-17.0900S,106-35.3600E,86,28.905,34.3243
527,2015/10/3,11:27:00,05-17.0900S,106-35.5400E,93,28.902,34.3246
528,2015/10/3,11:28:00,05-17.1000S,106-35.7200E,90,28.9,34.325
529,2015/10/3,11:29:00,05-17.0800S,106-35.9100E,79,28.901,34.3278
530,2015/10/3,11:30:00,05-17.0400S,106-36.0800E,79,28.902,34.3274
531,2015/10/3,11:31:00,05-17.0300S,106-36.2500E,90,28.897,34.329
532,2015/10/3,11:32:00,05-17.0400S,106-36.4300E,95,28.897,34.3307
533,2015/10/3,11:33:00,05-17.0500S,106-36.6100E,90,28.895,34.3318
534,2015/10/3,11:34:00,05-17.0500S,106-36.7800E,90,28.897,34.3325
535,2015/10/3,11:35:00,05-17.0500S,106-36.9600E,91,28.898,34.3334
536,2015/10/3,11:36:00,05-17.0600S,106-37.1400E,91,28.894,34.3335
537,2015/10/3,11:37:00,05-17.0600S,106-37.3200E,90,28.888,34.3339
538,2015/10/3,11:38:00,05-17.0600S,106-37.5000E,90,28.887,34.3344
539,2015/10/3,11:39:00,05-17.0700S,106-37.6800E,91,28.887,34.3348
540,2015/10/3,11:40:00,05-17.0700S,106-37.8700E,91,28.886,34.3354
541,2015/10/3,11:41:00,05-17.0800S,106-38.0500E,90,28.881,34.3366
542,2015/10/3,11:42:00,05-17.0700S,106-38.2300E,89,28.878,34.3374
543,2015/10/3,11:43:00,05-17.0700S,106-38.4200E,90,28.881,34.3367
544,2015/10/3,11:44:00,05-17.0800S,106-38.6000E,91,28.875,34.3363
545,2015/10/3,11:45:00,05-17.0800S,106-38.7900E,91,28.87,34.3374
546,2015/10/3,11:46:00,05-17.0900S,106-38.9700E,90,28.872,34.338
547,2015/10/3,11:47:00,05-17.0800S,106-39.1500E,89,28.877,34.3375
548,2015/10/3,11:48:00,05-17.0800S,106-39.3400E,90,28.877,34.3388
549,2015/10/3,11:49:00,05-17.0900S,106-39.5300E,90,28.873,34.3394
550,2015/10/3,11:50:00,05-17.0900S,106-39.7100E,90,28.876,34.3403
551,2015/10/3,11:51:00,05-17.0900S,106-39.8900E,90,28.875,34.3401
552,2015/10/3,11:52:00,05-17.0900S,106-40.0900E,90,28.865,34.3407
553,2015/10/3,11:53:00,05-17.0900S,106-40.2800E,90,28.863,34.344
554,2015/10/3,11:54:00,05-17.0900S,106-40.4700E,89,28.853,34.3452
555,2015/10/3,11:55:00,05-17.0900S,106-40.6600E,89,28.848,34.3448
556,2015/10/3,11:56:00,05-17.0900S,106-40.8400E,90,28.85,34.3464
557,2015/10/3,11:57:00,05-17.0900S,106-41.0300E,90,28.864,34.3456
558,2015/10/3,11:58:00,05-17.1000S,106-41.2100E,90,28.872,34.347
559,2015/10/3,11:59:00,05-17.1000S,106-41.4000E,90,28.872,34.3489
560,2015/10/3,12:00:00,05-17.1000S,106-41.5900E,90,28.862,34.351
561,2015/10/3,12:01:00,05-17.1000S,106-41.7700E,89,28.856,34.3507
562,2015/10/3,12:02:00,05-17.1000S,106-41.9600E,90,28.857,34.3494
563,2015/10/3,12:03:00,05-17.1000S,106-42.1500E,90,28.858,34.3516
564,2015/10/3,12:04:00,05-17.1000S,106-42.3300E,89,28.86,34.3523
565,2015/10/3,12:05:00,05-17.1000S,106-42.5200E,89,28.86,34.3523
566,2015/10/3,12:06:00,05-17.1000S,106-42.7100E,89,28.86,34.3543
567,2015/10/3,12:07:00,05-17.1000S,106-42.9000E,90,28.853,34.3546
568,2015/10/3,12:08:00,05-17.1000S,106-43.0800E,89,28.849,34.3557
569,2015/10/3,12:09:00,05-17.1000S,106-43.2700E,89,28.848,34.3556
570,2015/10/3,12:10:00,05-17.0900S,106-43.4600E,86,28.847,34.3575
571,2015/10/3,12:11:00,05-17.0700S,106-43.6400E,84,28.846,34.3576
572,2015/10/3,12:12:00,05-17.0700S,106-43.8300E,89,28.843,34.3582
573,2015/10/3,12:13:00,05-17.0600S,106-44.0200E,85,28.838,34.3587
574,2015/10/3,12:14:00,05-17.0200S,106-44.2000E,75,28.834,34.3588
575,2015/10/3,12:15:00,05-16.9700S,106-44.3800E,72,28.838,34.3589
576,2015/10/3,12:16:00,05-16.9300S,106-44.5500E,81,28.845,34.3591
577,2015/10/3,12:17:00,05-16.9200S,106-44.7400E,83,28.842,34.3618
578,2015/10/3,12:18:00,05-16.8800S,106-44.9100E,75,28.836,34.3624
579,2015/10/3,12:19:00,05-16.8300S,106-45.0800E,71,28.836,34.3628
580,2015/10/3,12:20:00,05-16.7900S,106-45.2500E,80,28.837,34.362
581,2015/10/3,12:21:00,05-16.7700S,106-45.4300E,84,28.835,34.3641
582,2015/10/3,12:22:00,05-16.7400S,106-45.6100E,76,28.83,34.3634
583,2015/10/3,12:23:00,05-16.6900S,106-45.7700E,68,28.833,34.3645
584,2015/10/3,12:24:00,05-16.6200S,106-45.9400E,72,28.831,34.365
585,2015/10/3,12:25:00,05-16.5900S,106-46.1100E,80,28.823,34.3653
586,2015/10/3,12:26:00,05-16.5600S,106-46.2800E,77,28.822,34.368
587,2015/10/3,12:27:00,05-16.5100S,106-46.4500E,70,28.821,34.3676
588,2015/10/3,12:28:00,05-16.4500S,106-46.6200E,72,28.823,34.3706
589,2015/10/3,12:29:00,05-16.4100S,106-46.7900E,80,28.821,34.3699
590,2015/10/3,12:30:00,05-16.3800S,106-46.9700E,78,28.817,34.3692
591,2015/10/3,12:31:00,05-16.3300S,106-47.1400E,71,28.819,34.3696
592,2015/10/3,12:32:00,05-16.2700S,106-47.3000E,71,28.818,34.3701
593,2015/10/3,12:33:00,05-16.2300S,106-47.4800E,79,28.815,34.3715
594,2015/10/3,12:34:00,05-16.2000S,106-47.6600E,79,28.807,34.3723
595,2015/10/3,12:35:00,05-16.1600S,106-47.8300E,73,28.813,34.3719
596,2015/10/3,12:36:00,05-16.0800S,106-48.0100E,65,28.814,34.3719
597,2015/10/3,12:37:00,05-16.0000S,106-48.1600E,58,28.814,34.3735
598,2015/10/3,12:38:00,05-15.9200S,106-48.3100E,68,28.814,34.3725
599,2015/10/3,12:39:00,05-15.8500S,106-48.4800E,66,28.812,34.3734
600,2015/10/3,12:40:00,05-15.7900S,106-48.6400E,66,28.81,34.3756
601,2015/10/3,12:41:00,05-15.7100S,106-48.8000E,63,28.805,34.3763
602,2015/10/3,12:42:00,05-15.6300S,106-48.9500E,65,28.801,34.3762
603,2015/10/3,12:43:00,05-15.5600S,106-49.1200E,66,28.799,34.3777
604,2015/10/3,12:44:00,05-15.4800S,106-49.2700E,61,28.802,34.3771
605,2015/10/3,12:45:00,05-15.4000S,106-49.4300E,63,28.81,34.378
606,2015/10/3,12:46:00,05-15.3200S,106-49.5900E,64,28.805,34.3789
607,2015/10/3,12:47:00,05-15.2400S,106-49.7500E,61,28.806,34.3803
608,2015/10/3,12:48:00,05-15.1500S,106-49.9000E,60,28.806,34.3808
609,2015/10/3,12:49:00,05-15.0600S,106-50.0700E,62,28.804,34.3816
610,2015/10/3,12:50:00,05-14.9900S,106-50.2300E,64,28.805,34.3819
611,2015/10/3,12:51:00,05-14.9100S,106-50.3900E,64,28.798,34.3834
612,2015/10/3,12:52:00,05-14.8300S,106-50.5500E,61,28.797,34.3827
613,2015/10/3,12:53:00,05-14.7300S,106-50.7100E,60,28.793,34.384
614,2015/10/3,12:54:00,05-14.6500S,106-50.8700E,62,28.795,34.3846
615,2015/10/3,12:55:00,05-14.5700S,106-51.0300E,64,28.796,34.3841
616,2015/10/3,12:56:00,05-14.4800S,106-51.2100E,62,28.795,34.3854
617,2015/10/3,12:57:00,05-14.3900S,106-51.3700E,58,28.789,34.3844
618,2015/10/3,12:58:00,05-14.2900S,106-51.5200E,57,28.789,34.3847
619,2015/10/3,12:59:00,05-14.2000S,106-51.6800E,62,28.788,34.3861
620,2015/10/3,13:00:00,05-14.1100S,106-51.8400E,62,28.787,34.3859
621,2015/10/3,13:01:00,05-14.0200S,106-52.0000E,57,28.784,34.385
622,2015/10/3,13:02:00,05-13.9200S,106-52.1400E,54,28.786,34.3866
623,2015/10/3,13:03:00,05-13.8200S,106-52.3000E,59,28.785,34.3874
624,2015/10/3,13:04:00,05-13.7400S,106-52.4600E,65,28.781,34.3869
625,2015/10/3,13:05:00,05-13.6500S,106-52.6200E,60,28.784,34.3866
626,2015/10/3,13:06:00,05-13.5500S,106-52.7700E,53,28.787,34.3875
627,2015/10/3,13:07:00,05-13.4500S,106-52.9200E,58,28.786,34.3881
628,2015/10/3,13:08:00,05-13.3700S,106-53.0800E,65,28.782,34.3883
629,2015/10/3,13:09:00,05-13.2900S,106-53.2400E,61,28.779,34.3888
630,2015/10/3,13:10:00,05-13.1900S,106-53.3900E,54,28.78,34.3895
631,2015/10/3,13:11:00,05-13.0900S,106-53.5300E,56,28.776,34.3899
632,2015/10/3,13:12:00,05-13.0000S,106-53.6900E,64,28.776,34.3894
633,2015/10/3,13:13:00,05-12.9200S,106-53.8500E,62,28.773,34.3901
634,2015/10/3,13:14:00,05-12.8300S,106-54.0100E,56,28.772,34.3904
635,2015/10/3,13:15:00,05-12.7200S,106-54.1500E,54,28.772,34.3901
636,2015/10/3,13:16:00,05-12.6300S,106-54.3100E,62,28.771,34.39
637,2015/10/3,13:17:00,05-12.5600S,106-54.4700E,63,28.77,34.3908
638,2015/10/3,13:18:00,05-12.4600S,106-54.6400E,57,28.767,34.3905
639,2015/10/3,13:19:00,05-12.3500S,106-54.7900E,54,28.764,34.3923
640,2015/10/3,13:20:00,05-12.2600S,106-54.9400E,60,28.761,34.3924
641,2015/10/3,13:21:00,05-12.1800S,106-55.1000E,64,28.751,34.3922
642,2015/10/3,13:22:00,05-12.0900S,106-55.2600E,59,28.754,34.3923
643,2015/10/3,13:23:00,05-11.9900S,106-55.4100E,54,28.753,34.3939